Date_and_time,latitude,longitude,wind_speed,RelWindDirFrom,WindDirFrom,air_pressure,air_temperature,relative_humidity,Temp,platform_speed_wrt_ground,air_pressure_at_mean_sea_level,platform_orientation
2019-04-08 23:40,50.6304433333333,-96.9807683333333,11.1,17.1,336,985.77,-0.9,79,1.91,0.0,1013.57,360.0
2019-04-08 23:50,50.630435,-96.980745,10.0,15.2,338,985.87,-1.1,79,1.91,0.0,1013.71,360.0
2019-04-09 00:00,50.6304433333333,-96.9807616666667,10.9,14.7,336,985.98,-1.3,79,1.91,0.0,1013.84,360.0
2019-04-09 00:10,50.630445,-96.9807633333333,12.4,15.9,350,986.11,-1.5,80,1.92,0.0,1013.99,360.0
2019-04-09 00:20,50.630445,-96.980765,11.0,15.5,337,986.27,-1.7,80,1.93,0.0,1014.17,360.0
2019-04-09 00:30,50.630445,-96.980765,11.4,15.6,337,986.40,-1.8,79,1.94,0.0,1014.30,360.0
2019-04-09 00:40,50.630445,-96.9807666666667,11.9,16.8,345,986.53,-2.1,80,1.95,0.0,1014.46,360.0
2019-04-09 00:50,50.630445,-96.9807683333333,10.7,16.7,342,986.69,-2.4,81,1.96,0.0,1014.64,360.0
2019-04-09 01:00,50.63045,-96.98077,11.5,16.2,341,986.83,-2.6,81,1.98,0.0,1014.80,360.0
2019-04-09 01:10,50.6304433333333,-96.980765,11.1,16.6,325,986.88,-2.8,81,1.98,0.0,1014.88,360.0
2019-04-09 01:20,50.63044,-96.9807616666667,12.2,18.4,347,987.00,-2.9,87,1.98,0.0,1015.03,360.0
2019-04-09 01:30,50.6304266666667,-96.9807583333333,13.4,17.3,350,987.16,-3.1,92,1.99,0.0,1015.21,360.0
2019-04-09 01:40,50.63044,-96.980775,14.2,19.6,352,987.38,-3.2,91,1.99,0.0,1015.45,360.0
2019-04-09 01:50,50.63044,-96.980775,15.7,20.9,351,987.37,-3.4,86,2.00,0.0,1015.47,360.0
2019-04-09 02:00,50.6304416666667,-96.9807783333333,12.7,19.1,347,987.66,-3.5,85,2.00,0.0,1015.78,222.8
2019-04-09 02:10,50.6304416666667,-96.980775,12.3,18.9,337,987.82,-3.6,84,2.01,0.0,1015.96,222.8
2019-04-09 02:20,50.6304433333333,-96.9807733333333,10.7,16.2,335,988.03,-3.6,84,2.01,0.0,1016.18,222.8
2019-04-09 02:30,50.630465,-96.98076,14.2,20.5,343,988.03,-3.7,85,2.01,0.0,1016.20,222.8
2019-04-09 02:40,50.63044,-96.9807783333333,15.5,20.2,348,988.02,-3.9,84,2.01,0.0,1016.21,222.8
2019-04-09 02:50,50.63044,-96.9807716666667,13.5,18.0,342,988.19,-4.0,85,2.01,0.0,1016.40,222.8
2019-04-09 03:00,50.6304416666667,-96.98077,13.8,17.5,347,988.33,-4.0,85,2.00,0.0,1016.56,270.0
2019-04-09 03:10,50.630445,-96.98077,11.3,16.2,345,988.47,-4.0,87,1.99,0.0,1016.70,270.0
2019-04-09 03:20,50.6304683333333,-96.9807666666667,12.1,17.1,342,988.51,-4.0,87,1.98,0.0,1016.76,270.0
2019-04-09 03:30,50.630425,-96.9807633333333,12.7,17.4,343,988.55,-4.0,87,1.99,0.0,1016.81,270.0
2019-04-09 03:40,50.6304333333333,-96.980765,11.0,15.1,339,988.67,-4.1,87,1.99,0.0,1016.95,270.0
2019-04-09 03:50,50.63044,-96.98076,13.0,18.5,346,988.74,-4.1,86,1.99,0.0,1017.02,270.0
2019-04-09 04:00,50.6304416666667,-96.98076,10.2,15.0,342,988.88,-4.1,87,1.98,0.0,1017.18,360.0
2019-04-09 04:10,50.6304416666667,-96.9807633333333,12.2,16.0,343,988.88,-4.2,86,1.98,0.0,1017.18,360.0
2019-04-09 04:20,50.6304416666667,-96.9807633333333,9.1,12.9,333,989.00,-4.2,87,1.98,0.0,1017.32,360.0
2019-04-09 04:30,50.63043,-96.980775,10.1,14.0,332,989.00,-4.3,85,1.98,0.0,1017.33,360.0
2019-04-09 04:40,50.6304283333333,-96.9807783333333,9.1,13.5,335,989.06,-4.3,84,1.98,0.0,1017.40,360.0
2019-04-09 04:50,50.6304416666667,-96.980775,10.7,15.5,330,989.00,-4.4,85,1.99,0.0,1017.33,360.0
2019-04-09 05:00,50.630445,-96.9807683333333,10.6,15.3,338,989.00,-4.4,87,1.99,0.0,1017.33,90.0
2019-04-09 05:10,50.6304433333333,-96.980775,10.9,14.4,344,989.02,-4.4,89,1.99,0.0,1017.36,90.0
2019-04-09 05:20,50.63044,-96.9807683333333,9.7,14.4,331,989.10,-4.5,88,1.99,0.0,1017.44,90.0
2019-04-09 05:30,50.6304483333333,-96.9807766666667,10.8,15.8,342,989.17,-4.4,86,1.99,0.0,1017.52,90.0
2019-04-09 05:40,50.6304483333333,-96.9807716666667,10.6,16.4,344,989.21,-4.5,85,1.99,0.0,1017.56,90.0
2019-04-09 05:50,50.6304533333333,-96.98077,8.1,12.6,335,989.37,-4.5,85,1.99,0.0,1017.72,90.0
2019-04-09 06:00,50.6304533333333,-96.9807683333333,11.5,15.6,342,989.31,-4.5,83,1.99,0.0,1017.67,360.0
2019-04-09 06:10,50.6304483333333,-96.98078,11.2,14.8,351,989.36,-4.6,84,1.99,0.0,1017.73,360.0
2019-04-09 06:20,50.6304533333333,-96.9807783333333,13.6,19.1,355,989.33,-4.7,86,1.99,0.0,1017.71,360.0
2019-04-09 06:30,50.6304533333333,-96.9807766666667,15.7,19.3,4,989.36,-5.1,92,1.99,0.0,1017.76,360.0
2019-04-09 06:40,50.630455,-96.980775,16.9,19.9,6,989.40,-5.2,92,1.99,0.0,1017.81,360.0
2019-04-09 06:50,50.63045,-96.98078,13.7,17.9,359,989.60,-5.2,90,1.99,0.0,1018.02,360.0
2019-04-09 07:00,50.630445,-96.9807766666667,14.3,19.6,2,989.62,-5.2,90,1.99,0.0,1018.04,270.0
2019-04-09 07:10,50.63044,-96.9807683333333,16.4,20.8,1,989.63,-5.4,87,1.99,0.0,1018.06,270.0
2019-04-09 07:20,50.6304383333333,-96.9807683333333,17.1,21.3,2,989.76,-5.7,91,1.99,0.0,1018.21,270.0
2019-04-09 07:30,50.6304383333333,-96.9807616666667,18.0,21.9,5,989.78,-5.8,94,1.99,0.0,1018.24,270.0
2019-04-09 07:40,50.6304366666667,-96.980775,16.7,21.4,358,989.92,-5.9,91,1.99,0.0,1018.39,270.0
2019-04-09 07:50,50.6304333333333,-96.9807733333333,14.4,18.4,358,990.18,-6.0,91,1.99,0.0,1018.66,270.0
2019-04-09 08:00,50.63043,-96.98077,13.8,17.6,357,990.31,-6.1,88,1.98,0.0,1018.81,161.1
2019-04-09 08:10,50.63043,-96.98077,11.8,16.6,347,990.40,-6.2,88,1.98,0.0,1018.90,161.1
2019-04-09 08:20,50.63043,-96.98077,13.3,17.0,346,990.40,-6.3,85,1.98,0.0,1018.94,161.1
2019-04-09 08:30,50.6304316666667,-96.9807683333333,14.0,18.2,358,990.45,-6.4,88,1.98,0.0,1019.01,161.1
2019-04-09 08:40,50.6304316666667,-96.98077,15.5,20.2,1,990.54,-6.6,88,1.98,0.0,1019.10,161.1
2019-04-09 08:50,50.6304333333333,-96.98077,14.1,18.6,353,990.67,-6.7,88,1.97,0.0,1019.24,161.1
2019-04-09 09:00,50.630435,-96.98077,15.4,21.4,349,990.73,-6.8,84,1.95,0.0,1019.32,161.1
2019-04-09 09:10,50.630435,-96.9807683333333,14.5,18.9,355,990.93,-6.9,85,1.95,0.0,1019.55,161.1
2019-04-09 09:20,50.630435,-96.98077,16.1,19.6,2,990.98,-6.9,86,1.95,0.0,1019.61,161.1
2019-04-09 09:30,50.6304366666667,-96.9807683333333,15.4,21.2,358,991.13,-7.0,86,1.95,0.0,1019.77,161.1
2019-04-09 09:40,50.6304366666667,-96.98077,15.2,20.4,355,991.24,-7.0,84,1.95,0.0,1019.89,161.1
2019-04-09 09:50,50.6304366666667,-96.98077,16.4,20.5,358,991.37,-7.2,87,1.95,0.0,1020.04,161.1
2019-04-09 10:00,50.6304333333333,-96.9807716666667,15.6,18.7,360,991.49,-7.4,87,1.95,0.0,1020.18,142.0
2019-04-09 10:10,50.6304316666667,-96.9807816666667,14.4,18.7,357,991.54,-7.5,90,1.96,0.0,1020.24,142.0
2019-04-09 10:20,50.6304333333333,-96.9807733333333,15.0,18.5,356,991.62,-7.6,91,1.96,0.0,1020.34,142.0
2019-04-09 10:30,50.6304316666667,-96.9807583333333,14.4,18.2,359,991.77,-7.8,92,1.95,0.0,1020.51,142.0
2019-04-09 10:40,50.6304466666667,-96.9807733333333,14.0,18.7,2,991.82,-7.9,93,1.95,0.0,1020.57,142.0
2019-04-09 10:50,50.6304433333333,-96.9807683333333,14.5,18.2,1,991.83,-7.9,93,1.95,0.0,1020.58,142.0
2019-04-09 11:00,50.630445,-96.980765,12.7,16.6,356,991.97,-8.0,94,1.95,0.0,1020.74,18.9
2019-04-09 11:10,50.6304466666667,-96.980765,12.5,16.5,356,992.11,-8.1,94,1.95,0.0,1020.90,18.9
2019-04-09 11:20,50.6304166666667,-96.9807716666667,11.7,15.2,358,992.31,-8.1,95,1.95,0.0,1021.10,18.9
2019-04-09 11:30,50.6304333333333,-96.9807716666667,10.5,13.6,356,992.48,-8.2,95,1.95,0.0,1021.28,18.9
2019-04-09 11:40,50.6304433333333,-96.9807683333333,10.0,13.5,353,992.67,-8.2,95,1.94,0.0,1021.49,18.9
2019-04-09 11:50,50.630445,-96.9807633333333,10.5,14.5,350,992.73,-8.2,94,1.94,0.0,1021.56,18.9
2019-04-09 12:00,50.6304316666667,-96.9807566666667,9.4,12.4,349,992.82,-8.2,93,1.94,0.0,1021.66,131.7
2019-04-09 12:10,50.6304366666667,-96.9807666666667,9.9,12.7,349,992.97,-8.2,92,1.93,0.0,1021.83,131.7
2019-04-09 12:20,50.630435,-96.9807683333333,10.3,13.6,347,993.14,-8.1,91,1.93,0.0,1022.01,131.7
2019-04-09 12:30,50.630435,-96.980765,10.5,14.2,352,993.31,-8.1,91,1.93,0.0,1022.18,131.7
2019-04-09 12:40,50.630435,-96.980765,10.9,13.7,353,993.44,-8.0,90,1.92,0.0,1022.31,131.7
2019-04-09 12:50,50.630435,-96.980765,11.8,15.5,353,993.48,-8.0,88,1.92,0.0,1022.35,131.7
2019-04-09 13:00,50.6304333333333,-96.9807633333333,11.3,14.2,352,993.69,-7.9,88,1.91,0.0,1022.57,90.0
2019-04-09 13:10,50.6304333333333,-96.9807633333333,11.6,14.5,356,993.81,-7.7,86,1.91,0.0,1022.69,90.0
2019-04-09 13:20,50.6304316666667,-96.9807616666667,12.7,15.6,356,993.88,-7.7,85,1.91,0.0,1022.76,90.0
2019-04-09 13:30,50.6304283333333,-96.980775,12.0,15.0,2,994.03,-7.7,87,1.91,0.0,1022.92,90.0
2019-04-09 13:40,50.63043,-96.9807683333333,12.2,15.7,1,994.23,-7.9,87,1.91,0.0,1023.14,90.0
2019-04-09 13:50,50.6304316666667,-96.98077,12.6,15.4,3,994.32,-7.8,87,1.91,0.0,1023.22,90.0
2019-04-09 14:00,50.6304333333333,-96.9807716666667,12.2,15.0,3,994.31,-7.7,86,1.91,0.0,1023.20,221.3
2019-04-09 14:10,50.6304333333333,-96.9807716666667,12.7,15.4,6,994.33,-7.5,90,1.91,0.0,1023.21,221.3
2019-04-09 14:20,50.6304366666667,-96.9807733333333,13.7,16.5,11,994.40,-7.6,91,1.91,0.0,1023.29,221.3
2019-04-09 14:30,50.6304366666667,-96.9807716666667,12.7,16.1,5,994.47,-7.6,90,1.91,0.0,1023.36,221.3
2019-04-09 14:40,50.6304366666667,-96.9807733333333,13.0,15.8,7,994.48,-7.7,90,1.91,0.0,1023.37,221.3
2019-04-09 14:50,50.6304383333333,-96.9807733333333,12.8,15.8,7,994.54,-7.6,91,1.91,0.0,1023.42,221.3
2019-04-09 15:00,50.6304383333333,-96.9807733333333,12.4,15.2,9,994.58,-7.5,90,1.90,0.0,1023.45,323.4
2019-04-09 15:10,50.6304383333333,-96.9807733333333,12.7,15.6,11,994.53,-7.5,89,1.89,0.0,1023.40,323.4
2019-04-09 15:20,50.6304383333333,-96.9807733333333,12.1,15.2,7,994.64,-7.2,88,1.89,0.0,1023.49,323.4
2019-04-09 15:30,50.6304433333333,-96.980795,12.5,15.2,12,994.64,-7.3,87,1.89,0.0,1023.51,323.4
2019-04-09 15:40,50.63044,-96.9807783333333,13.9,16.9,24,994.60,-7.3,86,1.89,0.0,1023.46,323.4
2019-04-09 15:50,50.63044,-96.9807716666667,13.2,16.2,20,994.77,-7.3,85,1.89,0.0,1023.63,323.4
2019-04-09 16:00,50.63044,-96.9807716666667,12.4,14.9,19,994.92,-7.4,83,1.89,0.0,1023.78,345.5
2019-04-09 16:10,50.6303933333333,-96.980765,12.7,16.1,18,995.05,-7.4,84,1.89,0.0,1023.91,345.5
2019-04-09 16:20,50.6304233333333,-96.9807616666667,11.7,14.3,13,995.19,-7.2,80,1.89,0.0,1024.06,345.5
2019-04-09 16:30,50.630435,-96.9807933333333,10.8,13.5,13,995.40,-7.1,79,1.89,0.0,1024.27,345.5
2019-04-09 16:40,50.630435,-96.9807683333333,10.0,12.3,14,995.58,-6.8,78,1.89,0.0,1024.43,345.5
2019-04-09 16:50,50.6304333333333,-96.9807683333333,11.2,15.2,12,995.61,-6.9,76,1.90,0.0,1024.47,345.5
2019-04-09 17:00,50.630435,-96.9807683333333,11.6,14.2,19,995.58,-6.9,75,1.89,0.0,1024.43,48.3
2019-04-09 17:10,50.6304333333333,-96.98077,12.2,15.1,16,995.48,-6.8,76,1.90,0.0,1024.31,48.3
2019-04-09 17:20,50.6304333333333,-96.9807683333333,12.7,15.4,16,995.39,-6.8,77,1.90,0.0,1024.22,48.3
2019-04-09 17:30,50.6304366666667,-96.9807616666667,12.2,16.1,19,995.47,-6.6,75,1.91,0.0,1024.29,48.3
2019-04-09 17:40,50.6304416666667,-96.9807666666667,11.7,15.1,16,995.56,-6.5,74,1.91,0.0,1024.38,48.3
2019-04-09 17:50,50.63044,-96.980775,12.3,15.8,19,995.44,-6.3,72,1.91,0.0,1024.25,48.3
2019-04-09 18:00,50.63044,-96.9807766666667,14.1,18.2,22,995.25,-6.1,69,1.92,0.0,1024.05,0.0
2019-04-09 18:10,50.6304383333333,-96.9807766666667,13.0,16.5,23,995.18,-6.0,70,1.92,0.0,1023.96,0.0
2019-04-09 18:20,50.6304083333333,-96.9807666666667,11.7,15.6,14,995.24,-5.9,72,1.94,0.0,1024.00,0.0
2019-04-09 18:30,50.6304283333333,-96.980775,11.9,14.6,14,995.36,-5.7,70,1.94,0.0,1024.10,0.0
2019-04-09 18:40,50.6304333333333,-96.9807733333333,11.8,15.0,11,995.49,-5.6,68,1.95,0.0,1024.23,0.0
2019-04-09 18:50,50.6304316666667,-96.9807716666667,10.3,13.5,12,995.64,-5.4,67,1.96,0.0,1024.38,0.0
2019-04-09 19:00,50.6304316666667,-96.9807683333333,9.3,12.8,11,995.82,-5.2,67,1.96,0.0,1024.55,165.5
2019-04-09 19:10,50.6304333333333,-96.98077,9.8,12.7,13,995.75,-5.0,65,1.97,0.0,1024.46,165.5
2019-04-09 19:20,50.6304366666667,-96.9807816666667,9.9,13.8,8,995.70,-5.0,64,1.98,0.0,1024.40,165.5
2019-04-09 19:30,50.6304316666667,-96.9807816666667,11.5,14.0,9,995.62,-4.9,65,1.98,0.0,1024.31,165.5
2019-04-09 19:40,50.6304283333333,-96.9807816666667,9.3,12.6,9,995.66,-4.7,65,1.99,0.0,1024.33,165.5
2019-04-09 19:50,50.6304266666667,-96.9807866666667,10.2,13.1,8,995.50,-4.5,64,2.00,0.0,1024.14,165.5
2019-04-09 20:00,50.63043,-96.980785,10.0,13.5,11,995.60,-4.5,63,2.01,0.0,1024.24,229.4
2019-04-09 20:10,50.6304533333333,-96.9808,8.7,12.5,2,995.73,-4.5,64,2.02,0.0,1024.36,229.4
2019-04-09 20:20,50.63044,-96.980785,8.1,11.5,7,995.76,-4.3,65,2.02,0.0,1024.38,229.4
2019-04-09 20:30,50.63044,-96.9807816666667,7.7,12.1,358,995.85,-4.2,64,2.03,0.0,1024.46,229.4
2019-04-09 20:40,50.63044,-96.9807766666667,10.3,14.1,3,995.77,-4.1,64,2.03,0.0,1024.36,229.4
2019-04-09 20:50,50.6304566666667,-96.9807683333333,10.5,14.3,355,995.70,-4.0,62,2.03,0.0,1024.27,229.4
2019-04-09 21:00,50.6304516666667,-96.9807633333333,10.1,13.4,3,995.69,-4.1,63,2.04,0.0,1024.25,14.5
2019-04-09 21:10,50.6304483333333,-96.9807666666667,10.2,13.9,9,995.44,-3.8,64,2.04,0.0,1023.99,14.5
2019-04-09 21:20,50.630445,-96.98076,9.5,13.5,3,995.35,-3.6,63,2.05,0.0,1023.87,14.5
2019-04-09 21:30,50.6304416666667,-96.9807616666667,9.5,11.8,5,995.37,-3.3,63,2.06,0.0,1023.87,14.5
2019-04-09 21:40,50.6304416666667,-96.9807616666667,9.4,12.8,1,995.56,-3.1,62,2.06,0.0,1024.05,14.5
2019-04-09 21:50,50.6304433333333,-96.9807633333333,9.9,13.6,359,995.62,-3.0,61,2.06,0.0,1024.10,14.5
2019-04-09 22:00,50.6304433333333,-96.980765,10.7,14.2,1,995.57,-3.1,61,2.07,0.0,1024.05,38.0
2019-04-09 22:10,50.6304433333333,-96.980765,10.6,14.0,1,995.51,-3.0,61,2.09,0.0,1023.97,38.0
2019-04-09 22:20,50.6304433333333,-96.9807633333333,10.0,12.7,356,995.52,-2.8,59,2.10,0.0,1023.97,38.0
2019-04-09 22:30,50.6304433333333,-96.9807633333333,9.8,12.9,4,995.63,-2.6,60,2.10,0.0,1024.07,38.0
2019-04-09 22:40,50.6304433333333,-96.980765,9.6,13.4,356,995.70,-2.5,59,2.10,0.0,1024.13,38.0
2019-04-09 22:50,50.630445,-96.9807633333333,9.0,13.0,357,995.80,-2.3,58,2.12,0.0,1024.22,38.0
2019-04-09 23:00,50.630445,-96.980765,9.9,13.1,352,995.91,-2.1,57,2.14,0.0,1024.31,41.2
2019-04-09 23:10,50.6304433333333,-96.9807666666667,9.7,12.8,358,995.90,-1.9,58,2.14,0.0,1024.28,41.2
2019-04-09 23:20,50.630435,-96.980785,9.8,13.9,359,995.96,-2.3,59,2.14,0.0,1024.35,41.2
2019-04-09 23:30,50.63044,-96.98078,9.6,11.5,355,996.02,-2.5,59,2.14,0.0,1024.41,41.2
2019-04-09 23:40,50.6304416666667,-96.980775,10.2,12.5,358,995.95,-2.5,60,2.14,0.0,1024.33,41.2
2019-04-09 23:50,50.6304283333333,-96.9807633333333,10.5,12.5,359,995.95,-2.3,61,2.14,0.0,1024.32,41.2
